Sunlight Mountain, CO

12:16 PM MST on December 14, 2017 (GMT -0700)
Sunlight Mountain

Weather History for K5SM - February, 2014

Change the Weather History Date:

Thursday, February 27, 2014

  Actual Average (KRIL) Record (KRIL)
Temperature  
Mean Temperature 29 °F -  
Max Temperature 32 °F 48 °F 64 °F (1950)
Min Temperature 26 °F 20 °F 2 °F (1939)
Degree Days  
Heating Degree Days 36    
Moisture  
Dew Point 24 °F    
Average Humidity 83    
Maximum Humidity 100    
Minimum Humidity 69    
Precipitation  
Precipitation 0.00 in - - ()
Sea Level Pressure  
Sea Level Pressure 29.85 in    
Wind  
Wind Speed 0 mph (SSW)    
Max Wind Speed 5 mph    
Max Gust Speed -    
Visibility 6 miles    
Events Snow    
Averages and records for this station are not official NWS values.
T = Trace of Precipitation, MM = Missing Value Source: NWS Daily Summary

Daily Weather History Graph

Daily Weather History Graph

Search for Another Location

Airport or City:

Trip Planner

Search our weather history database for the weather conditions in past years. The results will help you decide how hot, cold, wet, or windy it might be!

Date:

Astronomy

Feb. 27, 2014 Rise Set
Actual Time 6:45 AM MST 5:59 PM MST
Civil Twilight 6:18 AM MST 6:26 PM MST
Nautical Twilight 5:47 AM MST 6:57 PM MST
Astronomical Twilight 5:16 AM MST 7:29 PM MST
Moon 5:19 AM MST (2/27) 4:29 PM MST (2/27)
Length of Visible Light 12h 08m
Length of Day
11h 14m
Waning Crescent, 4% of the Moon is Illuminated
Feb 27
Waning Crescent
Mar 1
New
Mar 8
First Quarter
Mar 16
Full
Mar 23
Last Quarter

Hourly Weather History & Observations

Time (MST) Temp. Windchill Dew Point Humidity Pressure Visibility Wind Dir Wind Speed Gust Speed Precip Events Conditions
12:03 AM 28.4 °F - 21.2 °F 74% 30.05 in 10.0 mi Calm Calm - N/A   Mostly Cloudy
12:25 AM 28.4 °F - 21.2 °F 74% 30.04 in 10.0 mi Calm Calm - N/A   Scattered Clouds
12:45 AM 26.6 °F - 19.4 °F 74% 30.04 in 10.0 mi Calm Calm - N/A   Scattered Clouds
1:05 AM 26.6 °F - 19.4 °F 74% 30.03 in 10.0 mi Calm Calm - N/A   Clear
1:25 AM 26.6 °F - 19.4 °F 74% 30.02 in 10.0 mi Calm Calm - N/A   Scattered Clouds
1:45 AM 26.6 °F - 19.4 °F 74% 30.02 in 10.0 mi Calm Calm - N/A   Overcast
2:05 AM 26.6 °F - 19.4 °F 74% 30.02 in 10.0 mi Calm Calm - N/A   Overcast
2:25 AM 26.6 °F - 19.4 °F 74% 30.01 in 10.0 mi Calm Calm - N/A   Mostly Cloudy
2:45 AM 28.4 °F - 19.4 °F 69% 30.00 in 10.0 mi Calm Calm - N/A   Overcast
3:05 AM 28.4 °F - 19.4 °F 69% 29.99 in 10.0 mi Calm Calm - N/A   Overcast
3:25 AM 26.6 °F - 19.4 °F 74% 29.98 in 10.0 mi Calm Calm - N/A   Scattered Clouds
3:45 AM 26.6 °F - 19.4 °F 74% 29.98 in 10.0 mi Calm Calm - N/A   Mostly Cloudy
4:05 AM 26.6 °F - 19.4 °F 74% 29.98 in 10.0 mi Calm Calm - N/A   Overcast
4:25 AM 28.4 °F - 19.4 °F 69% 29.96 in 10.0 mi Calm Calm - N/A   Mostly Cloudy
4:45 AM 26.6 °F - 19.4 °F 74% 29.95 in 10.0 mi Calm Calm - N/A   Mostly Cloudy
5:05 AM 28.4 °F - 19.4 °F 69% 29.95 in 10.0 mi Calm Calm - N/A   Overcast
5:25 AM 28.4 °F - 19.4 °F 69% 29.95 in 10.0 mi Calm Calm - N/A   Overcast
5:45 AM 28.4 °F - 19.4 °F 69% 29.95 in 7.0 mi Calm Calm - N/A   Overcast
6:05 AM 28.4 °F - 21.2 °F 74% 29.94 in 10.0 mi Calm Calm - N/A   Mostly Cloudy
6:25 AM 28.4 °F - 21.2 °F 74% 29.94 in 10.0 mi Calm Calm - N/A   Overcast
6:45 AM 28.4 °F - 21.2 °F 74% 29.93 in 10.0 mi Calm Calm - N/A   Overcast
7:05 AM 28.4 °F - 21.2 °F 74% 29.93 in 10.0 mi Calm Calm - N/A   Overcast
7:25 AM 28.4 °F - 21.2 °F 74% 29.93 in 10.0 mi Calm Calm - N/A   Overcast
7:45 AM 28.4 °F 24.6 °F 19.4 °F 69% 29.93 in 10.0 mi SW 3.5 mph - N/A   Overcast
8:05 AM 28.4 °F - 21.2 °F 74% 29.93 in 10.0 mi Calm Calm - N/A   Overcast
8:25 AM 30.2 °F - 21.2 °F 69% 29.93 in 10.0 mi Calm Calm - N/A   Overcast
8:45 AM 30.2 °F - 21.2 °F 69% 29.92 in 10.0 mi Calm Calm - N/A   Overcast
9:05 AM 30.2 °F - 23.0 °F 75% 29.91 in 10.0 mi Calm Calm - N/A   Overcast
9:25 AM 32.0 °F 28.7 °F 24.8 °F 75% 29.90 in 10.0 mi SW 3.5 mph - N/A   Overcast
9:45 AM 32.0 °F - 26.6 °F 80% 29.89 in 7.0 mi Calm Calm - N/A   Overcast
10:05 AM 32.0 °F - 26.6 °F 80% 29.89 in 7.0 mi Calm Calm - N/A   Overcast
10:25 AM 32.0 °F - 26.6 °F 80% 29.88 in 10.0 mi Calm Calm - N/A   Mostly Cloudy
10:45 AM 32.0 °F - 26.6 °F 80% 29.88 in 7.0 mi Calm Calm - N/A   Overcast
11:05 AM 32.0 °F - 26.6 °F 80% 29.87 in 3.0 mi Calm Calm - N/A Snow Light Snow
11:24 AM 32.0 °F - 28.4 °F 87% 29.86 in 1.0 mi Calm Calm - N/A Snow Light Snow
11:45 AM 32.0 °F - 28.4 °F 87% 29.86 in 1.5 mi Calm Calm - N/A Snow Light Snow
12:05 PM 32.0 °F - 28.4 °F 87% 29.85 in 4.0 mi Calm Calm - N/A Snow Light Snow
12:24 PM 32.0 °F - 28.4 °F 87% 29.84 in 10.0 mi Calm Calm - N/A   Overcast
12:45 PM 32.0 °F - 28.4 °F 87% 29.82 in 5.0 mi Calm Calm - N/A   Overcast
1:05 PM 32.0 °F - 28.4 °F 87% 29.80 in 5.0 mi Calm Calm - N/A   Overcast
1:25 PM 32.0 °F - 28.4 °F 87% 29.79 in 10.0 mi Calm Calm - N/A   Overcast
1:45 PM 32.0 °F - 28.4 °F 87% 29.78 in 10.0 mi Calm Calm - N/A   Overcast
2:05 PM 32.0 °F - 28.4 °F 87% 29.77 in 1.2 mi Calm Calm - N/A Snow Light Snow
2:25 PM 32.0 °F - 28.4 °F 87% 29.77 in 4.0 mi Calm Calm - N/A Snow Light Snow
2:45 PM 32.0 °F - 28.4 °F 87% 29.76 in 7.0 mi Calm Calm - N/A   Overcast
3:05 PM 32.0 °F - 28.4 °F 87% 29.75 in 5.0 mi Calm Calm - N/A   Overcast
3:24 PM 32.0 °F - 28.4 °F 87% 29.75 in 0.8 mi Calm Calm - N/A Snow Light Snow
3:44 PM 32.0 °F - 28.4 °F 87% 29.75 in 1.8 mi Calm Calm - N/A Snow Light Snow
4:05 PM 32.0 °F - 30.2 °F 93% 29.74 in 1.2 mi Calm Calm - N/A Snow Light Snow
4:25 PM 30.2 °F - 28.4 °F 93% 29.73 in 5.0 mi Calm Calm - N/A   Overcast
4:45 PM 30.2 °F 26.7 °F 28.4 °F 93% 29.71 in 0.2 mi SW 3.5 mph - N/A Snow Heavy Snow
5:05 PM 26.6 °F - 24.8 °F 93% 29.69 in 2.0 mi Calm Calm - N/A Snow Light Snow
5:25 PM 28.4 °F - 24.8 °F 86% 29.69 in 4.0 mi Calm Calm - N/A   Overcast
5:45 PM 28.4 °F - 24.8 °F 86% 29.73 in 7.0 mi Calm Calm - N/A   Overcast
6:05 PM 28.4 °F - 26.6 °F 93% 29.74 in 10.0 mi Calm Calm - N/A   Overcast
6:24 PM 28.4 °F - 26.6 °F 93% 29.74 in 10.0 mi Calm Calm - N/A   Overcast
6:44 PM 28.4 °F - 26.6 °F 93% 29.73 in 10.0 mi Calm Calm - N/A   Mostly Cloudy
7:04 PM 28.4 °F - 26.6 °F 93% 29.73 in 7.0 mi Calm Calm - N/A Snow Light Snow
7:24 PM 28.4 °F - 26.6 °F 93% 29.73 in 0.5 mi Calm Calm - N/A Snow Heavy Snow
7:45 PM 28.4 °F 24.6 °F 26.6 °F 93% 29.71 in 0.8 mi SW 3.5 mph - N/A Snow Snow
8:05 PM 28.4 °F 24.6 °F 26.6 °F 93% 29.71 in 7.0 mi SSW 3.5 mph - N/A   Overcast
8:25 PM 28.4 °F - 26.6 °F 93% 29.72 in 7.0 mi Calm Calm - N/A   Overcast
8:45 PM 26.6 °F - 26.6 °F 100% 29.72 in 5.0 mi Calm Calm - N/A   Overcast
9:05 PM 26.6 °F - 24.8 °F 93% 29.73 in 1.0 mi Calm Calm - N/A Snow Snow
9:24 PM 26.6 °F - 24.8 °F 93% 29.73 in 0.5 mi Calm Calm - N/A Snow Heavy Snow
9:45 PM 26.6 °F 22.6 °F 24.8 °F 93% 29.73 in 0.2 mi South 3.5 mph - N/A Snow Heavy Snow
10:05 PM 26.6 °F 22.6 °F 26.6 °F 100% 29.74 in 0.2 mi SSW 3.5 mph - N/A Snow Heavy Snow
10:25 PM 26.6 °F 22.6 °F 26.6 °F 100% 29.75 in 0.5 mi SSW 3.5 mph - N/A Snow Heavy Snow
10:45 PM 26.6 °F 21.2 °F 26.6 °F 100% 29.75 in 0.5 mi SSW 4.6 mph - N/A Snow Heavy Snow
11:05 PM 26.6 °F 22.6 °F 26.6 °F 100% 29.75 in 0.5 mi SW 3.5 mph - N/A Snow Heavy Snow
11:25 PM 26.6 °F 21.2 °F 26.6 °F 100% 29.76 in 0.5 mi SSW 4.6 mph - N/A Snow Snow
11:45 PM 26.6 °F 22.6 °F 24.8 °F 93% 29.76 in 1.0 mi SW 3.5 mph - N/A Snow Light Snow